Weather Roundup
Issued by NWS Springfield, MO

Home | Current Version | Previous Version | Text Only | Print | Product List | Glossary On
Versions: 1 2 3 4 5 6 7 8 9 10 11 12 13 14 15 16 17 18 19 20 21 22 23 24 25 26 27 28 29 30 31 32 33 34 35 36 37 38 39 40 41 42 43 44 45 46 47 48 49 50
000
NZUS99 KSGF 240259
HRRSGF

HOURLY WEATHER
NATIONAL WEATHER SERVICE SPRINGFIELD MO
1000 PM CDT WED JUL 23 2014

......SGF CWA......

CITY           SKY/WX    TMP DP  RH WIND       PRES   REMARKS
SPRINGFIELD    CLEAR     75  69  81 CALM      30.09S
JOPLIN         CLEAR     76  67  73 N5        30.09R
WEST PLAINS    PTCLDY    70  67  90 CALM      30.10S
ROLLA          CLOUDY    75  64  68 NE10      30.10R
OSAGE BEACH    CLEAR     75  63  64 NE7       30.10R
BRANSON        FOG       73  72  94 CALM      30.10R VSB 1/4

......SURROUNDING SGF CWA......

CITY           SKY/WX    TMP DP  RH WIND       PRES   REMARKS
CHANUTE        CLEAR     77  66  68 E6        30.10R
PARSONS        CLEAR     75  67  76 NE3       30.10R
COFFEYVILLE    CLEAR     76  68  76 N5        30.08R
EMPORIA        CLEAR     74  64  71 NE6       30.13R
SILOAM SPRINGS PTCLDY    70  63  78 SW6       30.11S
NEAR YELLVILLE CLEAR     70  70 100 CALM      30.06S

......KANSAS AND MISSOURI......

CITY           SKY/WX    TMP DP  RH WIND       PRES   REMARKS
KANSAS CTY INT PTCLDY    75  64  68 NE7       30.14R
DOWNTOWN KC    CLEAR     78  63  59 NE9       30.11R
COLUMBIA       CLEAR     71  62  73 NE9       30.12R
SEDALIA        CLEAR     73  64  73 NE7       30.12R
ST JOSEPH      CLEAR     75  64  68 NE8       30.14R
ST LOUIS       PTCLDY    74  60  61 NE6       30.12R
SPIRIT OF STL  CLEAR     73  60  63 NE6       30.10R
KIRKSVILLE     CLEAR     67  58  72 NE3       30.17R
WICHITA        PTCLDY    79  64  60 E6        30.12R
TOPEKA         CLEAR     76  66  71 NE3       30.13R
OLATHE         CLEAR     76  62  62 NE6       30.12R

......TENNESSEE......

CITY           SKY/WX    TMP DP  RH WIND       PRES   REMARKS
MEMPHIS        MOCLDY    75  70  84 N9        30.04R
NASHVILLE      MOCLDY    79  71  76 NE8       30.01R

......ARKANSAS.......

CITY           SKY/WX    TMP DP  RH WIND       PRES   REMARKS
FAYETTEVILLE   PTCLDY    70  66  87 SW8       30.10R
FT SMITH       MOCLDY    72  69  90 E3        30.07S
LITTLE ROCK    CLOUDY    71  68  90 CALM      30.00F

......OKLAHOMA.......

CITY           SKY/WX    TMP DP  RH WIND       PRES   REMARKS
TULSA          MOCLDY    77  71  82 S7        30.07R
PONCA CITY     PTCLDY    76  71  85 CALM      30.09R
MCALESTER      CLOUDY    72  70  93 CALM      30.09S
OKLAHOMA CITY  CLOUDY    83  76  79 SE10      30.10R HX  91

......IOWA............

CITY           SKY/WX    TMP DP  RH WIND       PRES   REMARKS
DES MOINES     CLEAR     74  57  55 E6        30.15R
QUAD CITIES    CLEAR     65  57  75 CALM      30.13S

......ILLINOIS........

CITY           SKY/WX    TMP DP  RH WIND       PRES   REMARKS
QUINCY         CLEAR     66  58  75 N6        30.14R
CHICAGO        PTCLDY    62  49  62 N12       30.13S




USA.gov is the U.S. government's official web portal to all federal, state and local government web resources and services.